Regional Weather Roundup
Issued by NWS

Home | Current Version | Previous Version | Graphics & Text | Print | Product List | Glossary On
Versions: 1 2 3 4 5 6 7 8 9 10 11 12 13 14 15 16 17 18 19 20 21 22 23 24 25 26 27
000
ASUS45 KBOU 241007
RWRCO

WEATHER ROUNDUP FOR COLORADO
NATIONAL WEATHER SERVICE DENVER/BOULDER CO
400 AM MDT FRI MAR 24 2017

NOTE: "FAIR" INDICATES FEW OR NO CLOUDS BELOW 12000 FEET WITH NO
SIGNIFICANT WEATHER AND/OR OBSTRUCTIONS TO VISIBILITY.

COZ001>005-013-030-031-241100-
...NORTHWEST COLORADO...

CITY           SKY/WX    TMP DP  RH WIND       PRES   REMARKS
CRAIG          FAIR      37  29  72 N21G29    29.98R
HAYDEN         MOCLDY    34  27  75 CALM      29.98R
MEEKER         CLOUDY    39  29  67 N15       30.00R
MOUNT WERNER   NOT AVBL
STEAMBOAT SPGS MOCLDY    36  27  69 W10       29.95R
WALDEN         NOT AVBL
$$

COZ006>008-011-241100-
...WEST CENTRAL VALLEYS...

CITY           SKY/WX    TMP DP  RH WIND       PRES   REMARKS
GRAND JUNCTION FAIR      43  34  70 NW14      29.97R
MONTROSE       MOCLDY    43  34  70 NW23G39   29.93R
EAGLE          CLOUDY    38  35  89 E3        29.94R
RIFLE          MOCLDY    45  33  63 NW22G30   29.94R
DELTA          CLOUDY    47  34  60 W23G36    29.90S
NUCLA          CLOUDY    41  34  75 NW12      30.00S
$$

COZ017>023-064>068-241100-
...SOUTHWEST COLORADO...

CITY           SKY/WX    TMP DP  RH WIND       PRES   REMARKS
DURANGO        FAIR      36  29  75 SW12      29.77R
CORTEZ         FAIR      39  31  72 NW18G28   29.94R
PAGOSA SPRINGS CLOUDY    33  33 100 CALM      29.78R
TELLURIDE      NOT AVBL
WOLF CREEK PAS LGT SNOW  21  21 100 NW13G23   29.84S VSB 1   WCI   9
$$

COZ009-010-012-014-032>034-037-058>063-241100-
...CENTRAL COLORADO...

CITY           SKY/WX    TMP DP  RH WIND       PRES   REMARKS
ASPEN          CLOUDY    35  32  88 VRB7G16   29.89R WCI  29
BUENA VISTA    CLOUDY    39  28  64 NW17G31   29.79R
COPPER MTN     CLOUDY    27  21  80 MISG      29.93R
BERTHOUD PASS  CLOUDY    18   7  62 SE6       29.95R WCI   9
COTTONWOOD PAS LGT SNOW  36  27  69 N5        29.84R
GUNNISON       FAIR      36  29  75 SW12G17   29.83R
KREMMLING      CLOUDY    41  32  70 NW9       29.94R
LEADVILLE      CLOUDY    29  23  78 N15G25    29.86R WCI  18
MONARCH PASS   LGT SNOW  25  23  93 N17G24    29.94R VSB 1   WCI  11
SALIDA         CLOUDY    38  35  87 N10G28    29.85R
SUNLIGHT       HVY SNOW N/A N/A N/A NW9G20    30.02R VSB<1/4
WILKERSON PASS CLOUDY    23  21  93 MISG      29.85R
$$

COZ069>075-241100-
...SAN LUIS VALLEY/SANGRE DE CRISTO MOUNTAINS...

CITY           SKY/WX    TMP DP  RH WIND       PRES   REMARKS
ALAMOSA        LGT SNOW  34  33  96 NW25G35   29.67R FOG     WCI  21
LA VETA PASS   NOT AVBL
SAGUACHE       LGT RAIN  34  32  93 N10       29.74R WCI  26
$$

COZ035-036-038>040-241100-
...NORTHERN COLORADO FRONT RANGE...

CITY           SKY/WX    TMP DP  RH WIND       PRES   REMARKS
DENVER INTL AP LGT SNOW  33  32  96 N26       29.87R VSB 3/4 WCI  20
DMNS CITY PARK   N/A     36  35  96 NW7G29    29.91S
AURORA         LGT SNOW  33  33 100 N26G35    29.87R FOG     WCI  19
FRONT RANGE AP LGT SNOW  34  34 100 N30G36    29.86S VSB 1   WCI  20
ERIE MUNI ARPT CLOUDY    38  36  89 N25G32    29.93R
BOULDER MUN AP CLOUDY    39  36  87 N17G24    29.93S
CENTENNIAL     LGT SNOW  32  32 100 N29G37    29.87R VSB 3/4 WCI  18
BROOMFIELD     LGT RAIN  37  34  87 N26G36    29.91R
FORT COLLINS   LGT RAIN  39  35  86 N20       29.95R
LONGMONT       MIX PCPN  42  35  75 N18G25    29.96R
$$

COZ041-046-047-076>085-087-088-241100-
...PIKES PEAK/PALMER DIVIDE AND SOUTHERN FOOTHILLS...

CITY           SKY/WX    TMP DP  RH WIND       PRES   REMARKS
COLO. SPRINGS  LGT SNOW  34  33  96 N33G56    29.70R FOG     WCI  20
A. F. ACADEMY  SNOW      32  32  99 N33G55    29.74R VSB 1/2 WCI  17
SCHRIEVER AFB  LGT SNOW  34  31  88 N38G53    29.68  WCI  19
ELLICOTT       HVY SNOW N/A N/A N/A N51G64    29.62S
FALCON         CLOUDY    32  31  96 N37G52    29.69R WCI  16
FORT CARSON    FLURRIES  36  32  87 N47G58    29.67R
LIMON          TSTM      32  32 100 N39G53    29.69R VSB 3/4 WCI  16
MONUMENT HILL  CLOUDY    28  28 100 MISG      29.80F
TRINIDAD       RAIN      38  34  85 N44G64    29.49R
$$

COZ042>045-048>051-090-091-241100-
...NORTHEAST COLORADO...

CITY           SKY/WX    TMP DP  RH WIND       PRES   REMARKS
GREELEY ARPT   LGT RAIN  40  35  83 N23G30    29.93R
AKRON          LGT RAIN  40  38  93 N32G45    29.75S
BURLINGTON     CLOUDY    48  47  96 NE33G46   29.59F
WRAY           NOT AVBL
STERLING       LGT RAIN  43  41  93 N29G35    29.79F
HOLYOKE        LGT RAIN  46  43  87 N21G29    29.78R
FORT MORGAN    LGT RAIN  38  35  91 N29G38    29.84S
$$

COZ086-089-092>099-241100-
...SOUTHEAST COLORADO...

CITY           SKY/WX    TMP DP  RH WIND       PRES   REMARKS
PUEBLO         LGT RAIN  43  34  70 MISG      29.57R
LA JUNTA       MOCLDY    47  28  47 NE18      29.44R
LAMAR          FAIR      43  31  62 E17       29.42S
SPRINGFIELD      N/A     42  27  55 SE20G26   29.34F
$$




USA.gov is the U.S. government's official web portal to all federal, state and local government web resources and services.